Time,TemperatureF,DewpointF,PressureIn,WindDirection,WindDirectionDegrees,WindSpeedMPH,WindSpeedGustMPH,Humidity,HourlyPrecipIn,Conditions,Clouds,dailyrainin,SoftwareType,DateUTC
2013-04-02 00:00:00,47.5,29.3,29.03,West,280,0.0,0.0,49,0.00,,SKC,0.00,VWS V14.00,2013-04-02 04:00:00,
2013-04-02 00:05:00,47.3,29.1,29.03,West,280,0.0,0.0,49,0.00,,SKC,0.00,VWS V14.00,2013-04-02 04:05:00,
2013-04-02 00:11:00,47.3,29.6,29.03,West,280,0.0,0.0,50,0.00,,SKC,0.00,VWS V14.00,2013-04-02 04:11:00,
2013-04-02 00:16:00,47.1,29.5,29.03,West,280,0.0,0.0,50,0.00,,SKC,0.00,VWS V14.00,2013-04-02 04:16:00,
2013-04-02 00:21:00,46.9,29.3,29.03,West,273,0.0,0.0,50,0.00,,SKC,0.00,VWS V14.00,2013-04-02 04:21:00,
2013-04-02 00:26:00,46.8,29.1,29.03,West,273,0.0,0.0,50,0.00,,SKC,0.00,VWS V14.00,2013-04-02 04:26:00,
2013-04-02 00:31:00,46.6,29.0,29.03,West,273,0.0,0.0,50,0.00,,SKC,0.00,VWS V14.00,2013-04-02 04:31:00,
2013-04-02 00:36:00,46.4,29.3,29.03,West,273,0.0,0.0,51,0.00,,SKC,0.00,VWS V14.00,2013-04-02 04:36:00,
2013-04-02 00:41:00,46.0,28.9,29.03,West,273,0.0,0.0,51,0.00,,SKC,0.00,VWS V14.00,2013-04-02 04:41:00,
2013-04-02 00:46:00,45.9,29.2,29.03,West,273,0.0,0.0,52,0.00,,SKC,0.00,VWS V14.00,2013-04-02 04:46:00,
2013-04-02 00:51:00,45.7,29.1,29.03,NW,307,0.0,0.0,52,0.00,,SKC,0.00,VWS V14.00,2013-04-02 04:51:00,
2013-04-02 01:00:00,45.5,28.9,29.03,West,268,0.0,0.0,52,0.00,,SKC,0.00,VWS V14.00,2013-04-02 05:00:00,
2013-04-02 01:06:00,45.3,28.8,29.03,West,268,0.0,0.0,52,0.00,,SKC,0.00,VWS V14.00,2013-04-02 05:06:00,
2013-04-02 01:16:00,45.0,28.4,29.03,West,268,0.0,0.0,52,0.00,,SKC,0.00,VWS V14.00,2013-04-02 05:16:00,
2013-04-02 01:22:00,44.8,28.7,29.03,West,268,0.0,0.0,53,0.00,,SKC,0.00,VWS V14.00,2013-04-02 05:22:00,
2013-04-02 01:27:00,44.8,28.7,29.03,West,268,0.0,0.0,53,0.00,,SKC,0.00,VWS V14.00,2013-04-02 05:27:00,
2013-04-02 01:32:00,44.6,28.5,29.03,West,268,0.0,0.0,53,0.00,,SKC,0.00,VWS V14.00,2013-04-02 05:32:00,
2013-04-02 01:37:00,44.2,28.2,29.03,West,268,0.0,0.0,53,0.00,,SKC,0.00,VWS V14.00,2013-04-02 05:37:00,
2013-04-02 01:42:00,44.2,28.7,29.03,West,268,0.0,0.0,54,0.00,,SKC,0.00,VWS V14.00,2013-04-02 05:42:00,
2013-04-02 01:47:00,43.7,28.2,29.03,North,8,0.0,0.0,54,0.00,,SKC,0.00,VWS V14.00,2013-04-02 05:47:00,
2013-04-02 01:52:00,43.5,28.0,29.03,NNE,24,0.0,0.0,54,0.00,,SKC,0.00,VWS V14.00,2013-04-02 05:52:00,
2013-04-02 01:57:00,43.3,27.8,29.03,NE,38,0.0,3.6,54,0.00,,SKC,0.00,VWS V14.00,2013-04-02 05:57:00,
2013-04-02 02:02:00,43.3,27.8,29.03,NE,38,0.0,0.0,54,0.00,,SKC,0.00,VWS V14.00,2013-04-02 06:02:00,
2013-04-02 02:07:00,43.3,28.3,29.03,NE,38,0.0,0.0,55,0.00,,SKC,0.00,VWS V14.00,2013-04-02 06:07:00,
2013-04-02 02:12:00,43.2,28.1,29.03,NE,38,0.0,0.0,55,0.00,,SKC,0.00,VWS V14.00,2013-04-02 06:12:00,
2013-04-02 02:17:00,43.2,28.1,29.03,NE,38,0.0,0.0,55,0.00,,SKC,0.00,VWS V14.00,2013-04-02 06:17:00,
2013-04-02 02:22:00,43.0,27.9,29.03,SSW,193,0.0,0.0,55,0.00,,SKC,0.00,VWS V14.00,2013-04-02 06:22:00,
2013-04-02 02:27:00,43.0,27.9,29.03,SSW,193,0.0,0.0,55,0.00,,SKC,0.00,VWS V14.00,2013-04-02 06:27:00,
2013-04-02 02:32:00,43.0,27.9,29.06,East,101,0.0,0.0,55,0.00,,SKC,0.00,VWS V14.00,2013-04-02 06:32:00,
2013-04-02 02:37:00,42.8,27.8,29.06,East,97,0.0,0.0,55,0.00,,SKC,0.00,VWS V14.00,2013-04-02 06:37:00,
2013-04-02 02:42:00,42.8,27.8,29.06,East,97,0.0,0.0,55,0.00,,SKC,0.00,VWS V14.00,2013-04-02 06:42:00,
2013-04-02 02:47:00,42.6,27.6,29.06,East,98,0.0,0.0,55,0.00,,SKC,0.00,VWS V14.00,2013-04-02 06:47:00,
2013-04-02 02:52:00,42.4,27.4,29.06,SW,222,0.0,0.0,55,0.00,,SKC,0.00,VWS V14.00,2013-04-02 06:52:00,
2013-04-02 02:57:00,42.4,27.4,29.06,SW,222,0.0,0.0,55,0.00,,SKC,0.00,VWS V14.00,2013-04-02 06:57:00,
2013-04-02 03:02:00,42.3,27.3,29.06,SW,222,0.0,0.0,55,0.00,,SKC,0.00,VWS V14.00,2013-04-02 07:02:00,
2013-04-02 03:07:00,42.1,27.1,29.06,SW,222,0.0,0.0,55,0.00,,SKC,0.00,VWS V14.00,2013-04-02 07:07:00,
2013-04-02 03:12:00,42.1,27.1,29.06,SW,222,0.0,0.0,55,0.00,,SKC,0.00,VWS V14.00,2013-04-02 07:12:00,
2013-04-02 03:17:00,41.7,26.8,29.06,SW,222,0.0,0.0,55,0.00,,SKC,0.00,VWS V14.00,2013-04-02 07:17:00,
2013-04-02 03:22:00,41.5,26.6,29.06,NE,34,0.0,0.0,55,0.00,,SKC,0.00,VWS V14.00,2013-04-02 07:22:00,
2013-04-02 03:27:00,41.4,26.4,29.06,NE,34,0.0,0.0,55,0.00,,SKC,0.00,VWS V14.00,2013-04-02 07:27:00,
2013-04-02 03:32:00,41.4,26.4,29.06,NE,34,0.0,0.0,55,0.00,,SKC,0.00,VWS V14.00,2013-04-02 07:32:00,
2013-04-02 03:37:00,41.2,26.2,29.06,NE,34,0.0,0.0,55,0.00,,SKC,0.00,VWS V14.00,2013-04-02 07:37:00,
2013-04-02 03:42:00,41.2,26.2,29.06,NE,34,0.0,0.0,55,0.00,,SKC,0.00,VWS V14.00,2013-04-02 07:42:00,
2013-04-02 03:47:00,41.0,26.1,29.06,NE,34,0.0,0.0,55,0.00,,SKC,0.00,VWS V14.00,2013-04-02 07:47:00,
2013-04-02 03:52:00,40.8,26.4,29.06,NE,34,0.0,0.0,56,0.00,,SKC,0.00,VWS V14.00,2013-04-02 07:52:00,
2013-04-02 03:57:00,40.5,26.0,29.06,NE,34,0.0,0.0,56,0.00,,SKC,0.00,VWS V14.00,2013-04-02 07:57:00,
2013-04-02 04:02:00,40.3,25.9,29.06,NE,34,0.0,0.0,56,0.00,,SKC,0.00,VWS V14.00,2013-04-02 08:02:00,
2013-04-02 04:07:00,39.9,25.5,29.06,NE,34,0.0,0.0,56,0.00,,SKC,0.00,VWS V14.00,2013-04-02 08:07:00,
2013-04-02 04:12:00,39.7,25.3,29.06,NE,34,0.0,0.0,56,0.00,,SKC,0.00,VWS V14.00,2013-04-02 08:12:00,
2013-04-02 04:17:00,39.6,25.2,29.06,NE,34,0.0,0.0,56,0.00,,SKC,0.00,VWS V14.00,2013-04-02 08:17:00,
2013-04-02 04:22:00,39.4,25.0,29.06,NE,34,0.0,0.0,56,0.00,,SKC,0.00,VWS V14.00,2013-04-02 08:22:00,
2013-04-02 04:27:00,39.4,25.0,29.06,NE,34,0.0,0.0,56,0.00,,SKC,0.00,VWS V14.00,2013-04-02 08:27:00,
2013-04-02 04:32:00,39.4,25.0,29.06,NE,34,0.0,0.0,56,0.00,,SKC,0.00,VWS V14.00,2013-04-02 08:32:00,
2013-04-02 04:37:00,39.2,24.8,29.06,NE,34,0.0,0.0,56,0.00,,SKC,0.00,VWS V14.00,2013-04-02 08:37:00,
2013-04-02 04:42:00,39.2,25.3,29.06,NE,34,0.0,0.0,57,0.00,,SKC,0.00,VWS V14.00,2013-04-02 08:42:00,
2013-04-02 04:47:00,39.0,25.1,29.09,NE,34,0.0,0.0,57,0.00,,SKC,0.00,VWS V14.00,2013-04-02 08:47:00,
2013-04-02 04:52:00,38.8,24.9,29.09,South,179,0.0,0.0,57,0.00,,SKC,0.00,VWS V14.00,2013-04-02 08:52:00,
2013-04-02 04:57:00,38.8,25.3,29.09,South,179,0.0,0.0,58,0.00,,SKC,0.00,VWS V14.00,2013-04-02 08:57:00,
2013-04-02 05:02:00,38.7,25.2,29.09,South,179,0.0,0.0,58,0.00,,SKC,0.00,VWS V14.00,2013-04-02 09:02:00,
2013-04-02 05:08:00,38.5,25.0,29.09,East,98,0.0,0.0,58,0.00,,SKC,0.00,VWS V14.00,2013-04-02 09:08:00,
2013-04-02 05:13:00,38.1,24.7,29.09,ESE,105,0.0,0.0,58,0.00,,SKC,0.00,VWS V14.00,2013-04-02 09:13:00,
2013-04-02 05:18:00,37.9,24.5,29.09,ESE,105,0.0,0.0,58,0.00,,SKC,0.00,VWS V14.00,2013-04-02 09:18:00,
2013-04-02 05:23:00,37.9,24.5,29.09,East,80,0.0,0.0,58,0.00,,SKC,0.00,VWS V14.00,2013-04-02 09:23:00,
2013-04-02 05:28:00,37.6,23.7,29.09,East,80,0.0,0.0,57,0.00,,SKC,0.00,VWS V14.00,2013-04-02 09:28:00,
2013-04-02 05:33:00,37.6,23.7,29.09,East,80,0.0,0.0,57,0.00,,SKC,0.00,VWS V14.00,2013-04-02 09:33:00,
2013-04-02 05:38:00,37.6,23.7,29.09,East,80,0.0,0.0,57,0.00,,SKC,0.00,VWS V14.00,2013-04-02 09:38:00,
2013-04-02 05:43:00,37.6,24.2,29.09,East,80,0.0,0.0,58,0.00,,SKC,0.00,VWS V14.00,2013-04-02 09:43:00,
2013-04-02 05:48:00,37.6,23.7,29.12,East,80,0.0,0.0,57,0.00,,SKC,0.00,VWS V14.00,2013-04-02 09:48:00,
2013-04-02 05:53:00,37.6,24.2,29.12,East,80,0.0,0.0,58,0.00,,SKC,0.00,VWS V14.00,2013-04-02 09:53:00,
2013-04-02 05:58:00,37.4,24.0,29.12,East,80,0.0,0.0,58,0.00,,SKC,0.00,VWS V14.00,2013-04-02 09:58:00,
2013-04-02 06:03:00,37.4,24.0,29.12,East,80,0.0,0.0,58,0.00,,SKC,0.00,VWS V14.00,2013-04-02 10:03:00,
2013-04-02 06:08:00,37.2,23.8,29.12,East,80,0.0,0.0,58,0.00,,SKC,0.00,VWS V14.00,2013-04-02 10:08:00,
2013-04-02 06:13:00,37.2,23.8,29.12,East,80,0.0,0.0,58,0.00,,SKC,0.00,VWS V14.00,2013-04-02 10:13:00,
2013-04-02 06:18:00,37.0,23.6,29.12,East,80,0.0,0.0,58,0.00,,SKC,0.00,VWS V14.00,2013-04-02 10:18:00,
2013-04-02 06:23:00,36.9,23.5,29.12,East,80,0.0,0.0,58,0.00,,SKC,0.00,VWS V14.00,2013-04-02 10:23:00,
2013-04-02 06:28:00,36.7,23.3,29.12,East,80,0.0,0.0,58,0.00,,SKC,0.00,VWS V14.00,2013-04-02 10:28:00,
2013-04-02 06:33:00,36.3,23.0,29.12,East,80,0.0,0.0,58,0.00,,SKC,0.00,VWS V14.00,2013-04-02 10:33:00,
2013-04-02 06:38:00,36.1,22.8,29.12,East,80,0.0,0.0,58,0.00,,SKC,0.00,VWS V14.00,2013-04-02 10:38:00,
2013-04-02 06:43:00,36.1,22.8,29.12,East,80,0.0,0.0,58,0.00,,SKC,0.00,VWS V14.00,2013-04-02 10:43:00,
2013-04-02 06:48:00,36.1,22.8,29.12,East,80,0.0,0.0,58,0.00,,SKC,0.00,VWS V14.00,2013-04-02 10:48:00,
2013-04-02 06:53:00,36.0,23.0,29.12,East,80,0.0,0.0,59,0.00,,SKC,0.00,VWS V14.00,2013-04-02 10:53:00,
2013-04-02 06:58:00,36.0,23.0,29.12,East,80,0.0,0.0,59,0.00,,SKC,0.00,VWS V14.00,2013-04-02 10:58:00,
2013-04-02 07:03:00,36.0,23.0,29.12,East,80,0.0,0.0,59,0.00,,SKC,0.00,VWS V14.00,2013-04-02 11:03:00,
2013-04-02 07:08:00,35.8,22.9,29.12,East,80,0.0,0.0,59,0.00,,SKC,0.00,VWS V14.00,2013-04-02 11:08:00,
2013-04-02 07:13:00,35.8,22.9,29.12,East,80,0.0,0.0,59,0.00,,SKC,0.00,VWS V14.00,2013-04-02 11:13:00,
2013-04-02 07:18:00,35.4,22.5,29.15,East,80,0.0,0.0,59,0.00,,SKC,0.00,VWS V14.00,2013-04-02 11:18:00,
2013-04-02 07:23:00,35.4,22.9,29.15,East,80,0.0,0.0,60,0.00,,SKC,0.00,VWS V14.00,2013-04-02 11:23:00,
2013-04-02 07:28:00,35.4,22.5,29.15,East,80,0.0,0.0,59,0.00,,SKC,0.00,VWS V14.00,2013-04-02 11:28:00,
2013-04-02 07:33:00,35.1,22.6,29.15,East,80,0.0,0.0,60,0.00,,SKC,0.00,VWS V14.00,2013-04-02 11:33:00,
2013-04-02 07:38:00,35.1,22.6,29.15,East,80,0.0,0.0,60,0.00,,SKC,0.00,VWS V14.00,2013-04-02 11:38:00,
2013-04-02 07:43:00,35.1,22.6,29.15,East,80,0.0,0.0,60,0.00,,SKC,0.00,VWS V14.00,2013-04-02 11:43:00,
2013-04-02 07:48:00,34.9,22.4,29.15,East,80,0.0,0.0,60,0.00,,SKC,0.00,VWS V14.00,2013-04-02 11:48:00,
2013-04-02 07:53:00,34.9,22.4,29.15,East,80,0.0,0.0,60,0.00,,SKC,0.00,VWS V14.00,2013-04-02 11:53:00,
2013-04-02 07:58:00,35.1,23.0,29.15,East,80,0.0,0.0,61,0.00,,SKC,0.00,VWS V14.00,2013-04-02 11:58:00,
2013-04-02 08:03:00,35.2,23.1,29.15,East,80,0.0,0.0,61,0.00,,SKC,0.00,VWS V14.00,2013-04-02 12:03:00,
2013-04-02 08:08:00,35.4,23.7,29.15,East,80,0.0,0.0,62,0.00,,SKC,0.00,VWS V14.00,2013-04-02 12:08:00,
2013-04-02 08:13:00,35.6,23.5,29.15,East,80,0.0,0.0,61,0.00,,SKC,0.00,VWS V14.00,2013-04-02 12:13:00,
2013-04-02 08:18:00,35.8,24.0,29.15,East,80,0.0,0.0,62,0.00,,SKC,0.00,VWS V14.00,2013-04-02 12:18:00,
2013-04-02 08:23:00,36.3,24.6,29.15,ENE,62,0.0,0.0,62,0.00,,SKC,0.00,VWS V14.00,2013-04-02 12:23:00,
2013-04-02 08:28:00,37.0,24.9,29.15,NE,39,0.0,6.3,61,0.00,,SKC,0.00,VWS V14.00,2013-04-02 12:28:00,
2013-04-02 08:33:00,37.4,24.4,29.15,West,277,0.0,0.0,59,0.00,,SKC,0.00,VWS V14.00,2013-04-02 12:33:00,
2013-04-02 08:38:00,37.8,23.9,29.15,NE,46,0.0,5.8,57,0.00,,SKC,0.00,VWS V14.00,2013-04-02 12:38:00,
2013-04-02 08:43:00,38.1,24.2,29.15,NE,34,0.0,0.0,57,0.00,,SKC,0.00,VWS V14.00,2013-04-02 12:43:00,
2013-04-02 08:48:00,38.3,24.0,29.15,North,357,0.0,3.1,56,0.00,,SKC,0.00,VWS V14.00,2013-04-02 12:48:00,
2013-04-02 08:53:00,38.7,24.3,29.15,NNE,30,0.0,2.2,56,0.00,,SKC,0.00,VWS V14.00,2013-04-02 12:53:00,
2013-04-02 08:58:00,39.2,24.0,29.15,North,1,4.3,5.4,54,0.00,,SKC,0.00,VWS V14.00,2013-04-02 12:58:00,
2013-04-02 09:03:00,39.6,24.3,29.15,NNE,14,0.0,3.1,54,0.00,,SKC,0.00,VWS V14.00,2013-04-02 13:03:00,
2013-04-02 09:08:00,39.7,23.6,29.15,NE,38,0.0,3.1,52,0.00,,SKC,0.00,VWS V14.00,2013-04-02 13:08:00,
2013-04-02 09:13:00,40.3,24.1,29.15,NE,38,0.0,0.0,52,0.00,,SKC,0.00,VWS V14.00,2013-04-02 13:13:00,
2013-04-02 09:18:00,40.5,24.7,29.18,NW,326,3.2,5.4,53,0.00,,SKC,0.00,VWS V14.00,2013-04-02 13:18:00,
2013-04-02 09:23:00,40.6,23.9,29.18,NE,41,4.3,4.9,51,0.00,,SKC,0.00,VWS V14.00,2013-04-02 13:23:00,
2013-04-02 09:28:00,41.0,24.3,29.18,NNE,25,0.0,5.8,51,0.00,,SKC,0.00,VWS V14.00,2013-04-02 13:28:00,
2013-04-02 09:33:00,41.2,24.0,29.18,North,6,3.2,4.9,50,0.00,,SKC,0.00,VWS V14.00,2013-04-02 13:33:00,
2013-04-02 09:38:00,41.5,23.8,29.18,North,7,2.7,6.3,49,0.00,,SKC,0.00,VWS V14.00,2013-04-02 13:38:00,
2013-04-02 09:43:00,41.7,24.0,29.18,NNE,17,0.0,2.7,49,0.00,,SKC,0.00,VWS V14.00,2013-04-02 13:43:00,
2013-04-02 09:48:00,42.3,24.0,29.18,North,8,0.0,4.9,48,0.00,,SKC,0.00,VWS V14.00,2013-04-02 13:48:00,
2013-04-02 09:54:00,42.6,24.3,29.18,North,2,3.8,4.0,48,0.00,,SKC,0.00,VWS V14.00,2013-04-02 13:54:00,
2013-04-02 09:59:00,43.0,24.6,29.18,NNW,341,0.0,6.3,48,0.00,,SKC,0.00,VWS V14.00,2013-04-02 13:59:00,
2013-04-02 10:04:00,43.3,25.0,29.18,NE,51,5.9,6.3,48,0.00,,SKC,0.00,VWS V14.00,2013-04-02 14:04:00,
2013-04-02 10:09:00,43.5,23.1,29.18,NNE,26,3.2,6.3,44,0.00,,SKC,0.00,VWS V14.00,2013-04-02 14:09:00,
2013-04-02 10:14:00,43.7,24.3,29.18,NW,308,0.0,5.8,46,0.00,,SKC,0.00,VWS V14.00,2013-04-02 14:14:00,
2013-04-02 10:19:00,43.7,24.3,29.18,North,349,0.0,6.3,46,0.00,,SKC,0.00,VWS V14.00,2013-04-02 14:19:00,
2013-04-02 10:24:00,44.1,24.1,29.18,North,2,3.2,4.5,45,0.00,,SKC,0.00,VWS V14.00,2013-04-02 14:24:00,
2013-04-02 10:29:00,44.1,23.6,29.18,NNE,14,0.0,7.6,44,0.00,,SKC,0.00,VWS V14.00,2013-04-02 14:29:00,
2013-04-02 10:34:00,44.2,23.7,29.18,NNE,19,2.7,4.0,44,0.00,,SKC,0.00,VWS V14.00,2013-04-02 14:34:00,
2013-04-02 10:39:00,44.6,23.5,29.18,NNE,17,4.3,4.5,43,0.00,,SKC,0.00,VWS V14.00,2013-04-02 14:39:00,
2013-04-02 10:44:00,44.8,23.7,29.18,NNE,17,2.7,4.0,43,0.00,,SKC,0.00,VWS V14.00,2013-04-02 14:44:00,
2013-04-02 10:49:00,45.0,23.3,29.18,WSW,249,0.0,5.8,42,0.00,,SKC,0.00,VWS V14.00,2013-04-02 14:49:00,
2013-04-02 10:54:00,44.8,24.2,29.18,SSW,209,0.0,0.0,44,0.00,,SKC,0.00,VWS V14.00,2013-04-02 14:54:00,
2013-04-02 10:59:00,45.0,23.3,29.18,North,10,0.0,5.4,42,0.00,,SKC,0.00,VWS V14.00,2013-04-02 14:59:00,
2013-04-02 11:04:00,45.1,23.4,29.18,West,274,0.0,3.1,42,0.00,,SKC,0.00,VWS V14.00,2013-04-02 15:04:00,
2013-04-02 11:09:00,45.3,23.0,29.18,NE,35,4.8,8.3,41,0.00,,SKC,0.00,VWS V14.00,2013-04-02 15:09:00,
2013-04-02 11:14:00,45.5,23.2,29.18,NNW,341,0.0,4.0,41,0.00,,SKC,0.00,VWS V14.00,2013-04-02 15:14:00,
2013-04-02 11:19:00,45.9,23.5,29.18,North,0,3.8,6.3,41,0.00,,SKC,0.00,VWS V14.00,2013-04-02 15:19:00,
2013-04-02 11:24:00,46.2,23.2,29.18,NW,314,0.0,6.3,40,0.00,,SKC,0.00,VWS V14.00,2013-04-02 15:24:00,
2013-04-02 11:29:00,46.4,24.0,29.18,SW,218,0.0,6.3,41,0.00,,SKC,0.00,VWS V14.00,2013-04-02 15:29:00,
2013-04-02 11:39:00,46.8,24.3,29.18,NE,39,3.2,3.2,41,0.00,,SKC,0.00,VWS V14.00,2013-04-02 15:39:00,
2013-04-02 11:44:00,46.9,23.3,29.18,NNE,18,0.0,3.1,39,0.00,,SKC,0.00,VWS V14.00,2013-04-02 15:44:00,
2013-04-02 11:49:00,47.3,24.2,29.18,NNE,22,3.2,5.8,40,0.00,,SKC,0.00,VWS V14.00,2013-04-02 15:49:00,
2013-04-02 11:54:00,47.3,24.2,29.18,SSW,205,0.0,4.0,40,0.00,,SKC,0.00,VWS V14.00,2013-04-02 15:54:00,
2013-04-02 11:59:00,47.7,24.5,29.18,WSW,244,0.0,4.0,40,0.00,,SKC,0.00,VWS V14.00,2013-04-02 15:59:00,
2013-04-02 12:04:00,48.2,24.4,29.18,North,353,0.0,3.6,39,0.00,,SKC,0.00,VWS V14.00,2013-04-02 16:04:00,
2013-04-02 12:09:00,48.7,24.9,29.18,NNE,12,0.0,3.6,39,0.00,,SKC,0.00,VWS V14.00,2013-04-02 16:09:00,
2013-04-02 12:14:00,48.9,25.1,29.18,SSW,193,0.0,0.0,39,0.00,,SKC,0.00,VWS V14.00,2013-04-02 16:14:00,
2013-04-02 12:24:00,50.0,25.4,29.18,West,272,3.2,3.2,38,0.00,,SKC,0.00,VWS V14.00,2013-04-02 16:24:00,
2013-04-02 12:29:00,50.2,25.6,29.18,WSW,250,0.0,4.0,38,0.00,,SKC,0.00,VWS V14.00,2013-04-02 16:29:00,
2013-04-02 12:34:00,50.4,25.1,29.18,SSE,152,0.0,6.3,37,0.00,,SKC,0.00,VWS V14.00,2013-04-02 16:34:00,
2013-04-02 12:40:00,50.5,25.9,29.18,SSE,157,3.2,6.3,38,0.00,,SKC,0.00,VWS V14.00,2013-04-02 16:40:00,
2013-04-02 12:45:00,50.9,26.2,29.18,NNW,338,0.0,2.7,38,0.00,,SKC,0.00,VWS V14.00,2013-04-02 16:45:00,
2013-04-02 12:50:00,51.3,26.5,29.15,NNE,22,0.0,0.0,38,0.00,,SKC,0.00,VWS V14.00,2013-04-02 16:50:00,
2013-04-02 12:55:00,51.6,26.2,29.15,NNE,29,5.9,5.9,37,0.00,,SKC,0.00,VWS V14.00,2013-04-02 16:55:00,
2013-04-02 13:00:00,51.8,26.4,29.15,NE,49,4.3,5.4,37,0.00,,SKC,0.00,VWS V14.00,2013-04-02 17:00:00,
2013-04-02 13:05:00,52.2,26.7,29.15,NNE,29,0.0,3.6,37,0.00,,SKC,0.00,VWS V14.00,2013-04-02 17:05:00,
2013-04-02 13:15:00,53.2,27.7,29.15,NW,314,0.0,3.6,37,0.00,,SKC,0.00,VWS V14.00,2013-04-02 17:15:00,
2013-04-02 13:20:00,53.4,27.8,29.15,South,191,0.0,0.0,37,0.00,,SKC,0.00,VWS V14.00,2013-04-02 17:20:00,
2013-04-02 13:25:00,53.6,27.3,29.15,NNE,18,0.0,4.0,36,0.00,,SKC,0.00,VWS V14.00,2013-04-02 17:25:00,
2013-04-02 13:30:00,53.8,27.5,29.15,NNE,25,0.0,0.0,36,0.00,,SKC,0.00,VWS V14.00,2013-04-02 17:30:00,
2013-04-02 13:35:00,54.1,27.8,29.15,NNW,330,0.0,4.9,36,0.00,,SKC,0.00,VWS V14.00,2013-04-02 17:35:00,
2013-04-02 13:40:00,54.5,28.1,29.15,SW,225,0.0,0.0,36,0.00,,SKC,0.00,VWS V14.00,2013-04-02 17:40:00,
2013-04-02 13:45:00,54.9,27.8,29.15,NNE,12,0.0,4.0,35,0.00,,SKC,0.00,VWS V14.00,2013-04-02 17:45:00,
2013-04-02 13:50:00,55.2,28.1,29.15,East,86,3.2,4.0,35,0.00,,SKC,0.00,VWS V14.00,2013-04-02 17:50:00,
2013-04-02 13:55:00,55.4,28.2,29.15,NE,50,0.0,4.0,35,0.00,,SKC,0.00,VWS V14.00,2013-04-02 17:55:00,
2013-04-02 14:00:00,56.1,28.9,29.15,SW,235,0.0,0.0,35,0.00,,SKC,0.00,VWS V14.00,2013-04-02 18:00:00,
2013-04-02 14:05:00,56.3,29.0,29.15,North,0,4.8,4.8,35,0.00,,SKC,0.00,VWS V14.00,2013-04-02 18:05:00,
2013-04-02 14:10:00,56.1,28.1,29.15,North,8,0.0,0.0,34,0.00,,SKC,0.00,VWS V14.00,2013-04-02 18:10:00,
2013-04-02 14:15:00,56.7,29.3,29.15,NW,317,0.0,4.0,35,0.00,,SKC,0.00,VWS V14.00,2013-04-02 18:15:00,
2013-04-02 14:20:00,57.2,29.1,29.12,NNW,332,7.0,7.0,34,0.00,,SKC,0.00,VWS V14.00,2013-04-02 18:20:00,
2013-04-02 14:25:00,57.4,29.3,29.12,SW,226,4.8,5.8,34,0.00,,SKC,0.00,VWS V14.00,2013-04-02 18:25:00,
2013-04-02 14:30:00,57.7,29.6,29.12,WSW,239,3.2,3.2,34,0.00,,SKC,0.00,VWS V14.00,2013-04-02 18:30:00,
2013-04-02 14:35:00,57.9,29.7,29.12,NW,308,3.8,4.9,34,0.00,,SKC,0.00,VWS V14.00,2013-04-02 18:35:00,
2013-04-02 14:40:00,57.6,28.7,29.12,SW,228,2.7,3.6,33,0.00,,SKC,0.00,VWS V14.00,2013-04-02 18:40:00,
2013-04-02 14:45:00,57.9,29.0,29.12,North,357,2.7,4.0,33,0.00,,SKC,0.00,VWS V14.00,2013-04-02 18:45:00,
2013-04-02 14:59:00,58.1,28.4,29.12,South,184,0.0,3.1,32,0.00,,SKC,0.00,VWS V14.00,2013-04-02 18:59:00,
2013-04-02 15:06:00,58.5,28.7,29.12,NNE,29,0.0,0.0,32,0.00,,SKC,0.00,VWS V14.00,2013-04-02 19:06:00,
2013-04-02 15:11:00,58.1,26.0,29.12,WSW,237,0.0,4.0,29,0.00,,SKC,0.00,VWS V14.00,2013-04-02 19:11:00,
2013-04-02 15:16:00,57.9,26.7,29.12,SSW,201,0.0,4.0,30,0.00,,SKC,0.00,VWS V14.00,2013-04-02 19:16:00,
2013-04-02 15:21:00,57.9,26.7,29.12,NNE,32,0.0,2.7,30,0.00,,SKC,0.00,VWS V14.00,2013-04-02 19:21:00,
2013-04-02 15:26:00,58.1,26.9,29.12,West,267,3.8,6.3,30,0.00,,SKC,0.00,VWS V14.00,2013-04-02 19:26:00,
2013-04-02 15:31:00,57.9,25.9,29.12,NNE,28,0.0,0.0,29,0.00,,SKC,0.00,VWS V14.00,2013-04-02 19:31:00,
2013-04-02 15:40:00,58.5,27.2,29.12,SSW,192,0.0,4.0,30,0.00,,SKC,0.00,VWS V14.00,2013-04-02 19:40:00,
2013-04-02 15:50:00,57.9,25.0,29.09,NNE,32,4.8,4.8,28,0.00,,SKC,0.00,VWS V14.00,2013-04-02 19:50:00,
2013-04-02 15:56:00,57.6,24.7,29.09,NNE,26,3.2,5.4,28,0.00,,SKC,0.00,VWS V14.00,2013-04-02 19:56:00,
2013-04-02 16:02:00,57.4,24.6,29.09,NNE,17,0.0,0.0,28,0.00,,SKC,0.00,VWS V14.00,2013-04-02 20:02:00,
2013-04-02 16:07:00,57.4,24.6,29.09,SSW,196,0.0,4.9,28,0.00,,SKC,0.00,VWS V14.00,2013-04-02 20:07:00,
2013-04-02 16:12:00,57.6,25.6,29.09,SW,220,0.0,0.0,29,0.00,,SKC,0.00,VWS V14.00,2013-04-02 20:12:00,
2013-04-02 16:20:00,57.9,25.9,29.09,NNE,30,0.0,0.0,29,0.00,,SKC,0.00,VWS V14.00,2013-04-02 20:20:00,
2013-04-02 16:27:00,57.7,25.7,29.09,NW,304,0.0,4.0,29,0.00,,SKC,0.00,VWS V14.00,2013-04-02 20:27:00,
2013-04-02 16:32:00,57.6,25.6,29.09,North,357,0.0,0.0,29,0.00,,SKC,0.00,VWS V14.00,2013-04-02 20:32:00,
2013-04-02 16:40:00,57.0,24.3,29.09,NNE,30,0.0,4.9,28,0.00,,SKC,0.00,VWS V14.00,2013-04-02 20:40:00,
2013-04-02 16:47:00,57.4,24.6,29.09,NNW,345,0.0,4.0,28,0.00,,SKC,0.00,VWS V14.00,2013-04-02 20:47:00,
2013-04-02 16:52:00,57.6,23.9,29.09,SW,214,0.0,0.0,27,0.00,,SKC,0.00,VWS V14.00,2013-04-02 20:52:00,
2013-04-02 16:57:00,57.6,23.9,29.09,West,276,0.0,4.9,27,0.00,,SKC,0.00,VWS V14.00,2013-04-02 20:57:00,
2013-04-02 17:02:00,57.0,24.3,29.09,WSW,239,0.0,0.0,28,0.00,,SKC,0.00,VWS V14.00,2013-04-02 21:02:00,
2013-04-02 17:07:00,56.8,24.1,29.09,West,273,0.0,0.0,28,0.00,,SKC,0.00,VWS V14.00,2013-04-02 21:07:00,
2013-04-02 17:12:00,57.0,24.3,29.09,SW,228,0.0,0.0,28,0.00,,SKC,0.00,VWS V14.00,2013-04-02 21:12:00,
2013-04-02 17:17:00,57.2,24.4,29.09,NW,317,0.0,3.6,28,0.00,,SKC,0.00,VWS V14.00,2013-04-02 21:17:00,
2013-04-02 17:22:00,57.4,24.6,29.09,South,182,5.9,5.9,28,0.00,,SKC,0.00,VWS V14.00,2013-04-02 21:22:00,
2013-04-02 17:28:00,57.2,24.4,29.09,NW,323,3.2,4.9,28,0.00,,SKC,0.00,VWS V14.00,2013-04-02 21:28:00,
2013-04-02 17:38:00,56.3,23.6,29.09,NW,317,0.0,4.0,28,0.00,,SKC,0.00,VWS V14.00,2013-04-02 21:38:00,
2013-04-02 17:43:00,56.1,23.5,29.09,WSW,238,0.0,0.0,28,0.00,,SKC,0.00,VWS V14.00,2013-04-02 21:43:00,
2013-04-02 17:48:00,56.1,23.5,29.09,SE,134,0.0,0.0,28,0.00,,SKC,0.00,VWS V14.00,2013-04-02 21:48:00,
2013-04-02 17:53:00,55.9,23.3,29.09,WNW,284,0.0,0.0,28,0.00,,SKC,0.00,VWS V14.00,2013-04-02 21:53:00,
2013-04-02 17:58:00,55.9,23.3,29.09,SSW,193,4.3,4.3,28,0.00,,SKC,0.00,VWS V14.00,2013-04-02 21:58:00,
2013-04-02 18:03:00,55.8,23.2,29.09,NW,311,0.0,0.0,28,0.00,,SKC,0.00,VWS V14.00,2013-04-02 22:03:00,
2013-04-02 18:08:00,55.6,22.1,29.09,NE,41,0.0,0.0,27,0.00,,SKC,0.00,VWS V14.00,2013-04-02 22:08:00,
2013-04-02 18:13:00,55.6,23.0,29.09,NE,40,0.0,0.0,28,0.00,,SKC,0.00,VWS V14.00,2013-04-02 22:13:00,
2013-04-02 18:18:00,55.6,23.0,29.09,WSW,256,0.0,0.0,28,0.00,,SKC,0.00,VWS V14.00,2013-04-02 22:18:00,
2013-04-02 18:23:00,55.6,23.0,29.09,WSW,251,0.0,0.0,28,0.00,,SKC,0.00,VWS V14.00,2013-04-02 22:23:00,
2013-04-02 18:28:00,55.4,22.9,29.09,WSW,253,0.0,0.0,28,0.00,,SKC,0.00,VWS V14.00,2013-04-02 22:28:00,
2013-04-02 18:33:00,55.4,22.9,29.09,WNW,294,0.0,0.0,28,0.00,,SKC,0.00,VWS V14.00,2013-04-02 22:33:00,
2013-04-02 18:38:00,55.0,22.5,29.09,WNW,303,0.0,0.0,28,0.00,,SKC,0.00,VWS V14.00,2013-04-02 22:38:00,
2013-04-02 18:43:00,54.9,22.4,29.09,WSW,250,0.0,0.0,28,0.00,,SKC,0.00,VWS V14.00,2013-04-02 22:43:00,
2013-04-02 18:48:00,54.5,22.1,29.09,NNE,21,0.0,0.0,28,0.00,,SKC,0.00,VWS V14.00,2013-04-02 22:48:00,
2013-04-02 18:58:00,54.1,21.8,29.09,NNE,21,0.0,0.0,28,0.00,,SKC,0.00,VWS V14.00,2013-04-02 22:58:00,
2013-04-02 19:03:00,54.0,22.5,29.09,NNE,21,0.0,0.0,29,0.00,,SKC,0.00,VWS V14.00,2013-04-02 23:03:00,
2013-04-02 19:08:00,53.8,21.5,29.09,NNE,21,0.0,0.0,28,0.00,,SKC,0.00,VWS V14.00,2013-04-02 23:08:00,
2013-04-02 19:13:00,53.6,21.3,29.09,NNE,21,0.0,0.0,28,0.00,,SKC,0.00,VWS V14.00,2013-04-02 23:13:00,
2013-04-02 19:18:00,53.4,22.0,29.09,NNE,21,0.0,0.0,29,0.00,,SKC,0.00,VWS V14.00,2013-04-02 23:18:00,
2013-04-02 19:23:00,53.2,21.8,29.09,NNE,21,0.0,0.0,29,0.00,,SKC,0.00,VWS V14.00,2013-04-02 23:23:00,
2013-04-02 19:28:00,53.1,21.7,29.09,NNE,21,0.0,0.0,29,0.00,,SKC,0.00,VWS V14.00,2013-04-02 23:28:00,
2013-04-02 19:34:00,52.9,21.5,29.09,NNE,21,0.0,0.0,29,0.00,,SKC,0.00,VWS V14.00,2013-04-02 23:34:00,
2013-04-02 19:39:00,52.7,21.4,29.09,NNE,21,0.0,0.0,29,0.00,,SKC,0.00,VWS V14.00,2013-04-02 23:39:00,
2013-04-02 19:44:00,52.7,21.4,29.09,NNW,327,0.0,0.0,29,0.00,,SKC,0.00,VWS V14.00,2013-04-02 23:44:00,
2013-04-02 19:49:00,52.5,21.2,29.09,NW,305,0.0,0.0,29,0.00,,SKC,0.00,VWS V14.00,2013-04-02 23:49:00,
2013-04-02 19:54:00,52.3,21.0,29.09,NW,306,0.0,0.0,29,0.00,,SKC,0.00,VWS V14.00,2013-04-02 23:54:00,
2013-04-02 19:59:00,52.2,20.9,29.09,NW,305,0.0,0.0,29,0.00,,SKC,0.00,VWS V14.00,2013-04-02 23:59:00,
2013-04-02 20:04:00,52.2,20.9,29.09,NW,305,0.0,0.0,29,0.00,,SKC,0.00,VWS V14.00,2013-04-03 00:04:00,
2013-04-02 20:09:00,52.0,20.7,29.09,NW,305,0.0,0.0,29,0.00,,SKC,0.00,VWS V14.00,2013-04-03 00:09:00,
2013-04-02 20:14:00,51.8,20.6,29.09,NW,305,0.0,0.0,29,0.00,,SKC,0.00,VWS V14.00,2013-04-03 00:14:00,
2013-04-02 20:19:00,51.8,20.6,29.09,NW,305,0.0,0.0,29,0.00,,SKC,0.00,VWS V14.00,2013-04-03 00:19:00,
2013-04-02 20:24:00,51.6,21.2,29.09,NW,305,0.0,0.0,30,0.00,,SKC,0.00,VWS V14.00,2013-04-03 00:24:00,
2013-04-02 20:29:00,51.6,21.2,29.09,NW,305,0.0,0.0,30,0.00,,SKC,0.00,VWS V14.00,2013-04-03 00:29:00,
2013-04-02 20:34:00,51.4,21.1,29.09,NW,305,0.0,0.0,30,0.00,,SKC,0.00,VWS V14.00,2013-04-03 00:34:00,
2013-04-02 20:39:00,51.3,21.7,29.09,West,263,3.2,3.2,31,0.00,,SKC,0.00,VWS V14.00,2013-04-03 00:39:00,
2013-04-02 20:44:00,51.1,21.5,29.09,NW,309,0.0,0.0,31,0.00,,SKC,0.00,VWS V14.00,2013-04-03 00:44:00,
2013-04-02 20:49:00,50.9,21.4,29.09,SW,220,3.8,3.8,31,0.00,,SKC,0.00,VWS V14.00,2013-04-03 00:49:00,
2013-04-02 20:54:00,50.9,21.4,29.09,NW,316,0.0,4.5,31,0.00,,SKC,0.00,VWS V14.00,2013-04-03 00:54:00,
2013-04-02 20:59:00,50.7,21.2,29.12,NW,317,0.0,4.5,31,0.00,,SKC,0.00,VWS V14.00,2013-04-03 00:59:00,
2013-04-02 21:04:00,50.7,21.2,29.12,WSW,254,0.0,3.1,31,0.00,,SKC,0.00,VWS V14.00,2013-04-03 01:04:00,
2013-04-02 21:09:00,50.5,21.0,29.12,NW,307,0.0,3.1,31,0.00,,SKC,0.00,VWS V14.00,2013-04-03 01:09:00,
2013-04-02 21:14:00,50.5,21.0,29.12,NW,316,0.0,0.0,31,0.00,,SKC,0.00,VWS V14.00,2013-04-03 01:14:00,
2013-04-02 21:19:00,50.5,21.0,29.12,West,276,0.0,4.0,31,0.00,,SKC,0.00,VWS V14.00,2013-04-03 01:19:00,
2013-04-02 21:24:00,50.4,20.9,29.12,WNW,286,0.0,0.0,31,0.00,,SKC,0.00,VWS V14.00,2013-04-03 01:24:00,
2013-04-02 21:29:00,50.4,20.9,29.12,WNW,298,0.0,0.0,31,0.00,,SKC,0.00,VWS V14.00,2013-04-03 01:29:00,
2013-04-02 21:34:00,50.4,21.6,29.12,NW,318,0.0,4.0,32,0.00,,SKC,0.00,VWS V14.00,2013-04-03 01:34:00,
2013-04-02 21:39:00,50.2,21.5,29.12,West,263,0.0,4.0,32,0.00,,SKC,0.00,VWS V14.00,2013-04-03 01:39:00,
2013-04-02 21:44:00,50.0,21.3,29.12,West,263,0.0,0.0,32,0.00,,SKC,0.00,VWS V14.00,2013-04-03 01:44:00,
2013-04-02 21:49:00,50.0,21.3,29.12,West,263,0.0,0.0,32,0.00,,SKC,0.00,VWS V14.00,2013-04-03 01:49:00,
2013-04-02 21:54:00,49.8,21.9,29.12,West,268,0.0,0.0,33,0.00,,SKC,0.00,VWS V14.00,2013-04-03 01:54:00,
2013-04-02 21:59:00,49.8,21.9,29.12,NW,316,0.0,0.0,33,0.00,,SKC,0.00,VWS V14.00,2013-04-03 01:59:00,
2013-04-02 22:04:00,49.8,21.9,29.12,NW,316,0.0,0.0,33,0.00,,SKC,0.00,VWS V14.00,2013-04-03 02:04:00,
2013-04-02 22:09:00,49.8,22.6,29.12,NW,316,0.0,0.0,34,0.00,,SKC,0.00,VWS V14.00,2013-04-03 02:09:00,
2013-04-02 22:14:00,49.6,22.4,29.12,West,271,2.7,4.0,34,0.00,,SKC,0.00,VWS V14.00,2013-04-03 02:14:00,
2013-04-02 22:20:00,49.6,22.4,29.12,West,279,5.9,5.9,34,0.00,,SKC,0.00,VWS V14.00,2013-04-03 02:20:00,
2013-04-02 22:25:00,49.5,22.3,29.12,NNW,330,4.8,4.8,34,0.00,,SKC,0.00,VWS V14.00,2013-04-03 02:25:00,
2013-04-02 22:30:00,49.5,22.3,29.12,NW,312,0.0,4.0,34,0.00,,SKC,0.00,VWS V14.00,2013-04-03 02:30:00,
2013-04-02 22:35:00,49.5,21.6,29.15,West,268,2.7,2.7,33,0.00,,SKC,0.00,VWS V14.00,2013-04-03 02:35:00,
2013-04-02 22:40:00,49.3,21.4,29.15,WNW,301,0.0,4.0,33,0.00,,SKC,0.00,VWS V14.00,2013-04-03 02:40:00,
2013-04-02 22:45:00,49.1,21.3,29.15,WNW,299,0.0,3.6,33,0.00,,SKC,0.00,VWS V14.00,2013-04-03 02:45:00,
2013-04-02 22:50:00,48.9,21.1,29.15,WNW,302,0.0,3.6,33,0.00,,SKC,0.00,VWS V14.00,2013-04-03 02:50:00,
2013-04-02 22:55:00,48.7,20.9,29.15,WNW,303,0.0,0.0,33,0.00,,SKC,0.00,VWS V14.00,2013-04-03 02:55:00,
2013-04-02 23:00:00,48.7,20.9,29.15,NW,320,0.0,0.0,33,0.00,,SKC,0.00,VWS V14.00,2013-04-03 03:00:00,
2013-04-02 23:10:00,48.4,20.6,29.15,NW,319,0.0,0.0,33,0.00,,SKC,0.00,VWS V14.00,2013-04-03 03:10:00,
2013-04-02 23:15:00,48.2,20.5,29.15,West,264,0.0,3.6,33,0.00,,SKC,0.00,VWS V14.00,2013-04-03 03:15:00,
2013-04-02 23:20:00,48.0,20.3,29.15,WNW,291,0.0,0.0,33,0.00,,SKC,0.00,VWS V14.00,2013-04-03 03:20:00,
2013-04-02 23:25:00,47.8,20.1,29.15,WNW,291,0.0,0.0,33,0.00,,SKC,0.00,VWS V14.00,2013-04-03 03:25:00,
2013-04-02 23:30:00,47.7,20.0,29.15,WNW,291,0.0,0.0,33,0.00,,SKC,0.00,VWS V14.00,2013-04-03 03:30:00,
2013-04-02 23:35:00,47.5,19.8,29.15,WNW,291,0.0,0.0,33,0.00,,SKC,0.00,VWS V14.00,2013-04-03 03:35:00,
2013-04-02 23:40:00,47.3,20.4,29.15,WNW,290,0.0,0.0,34,0.00,,SKC,0.00,VWS V14.00,2013-04-03 03:40:00,
2013-04-02 23:45:00,46.9,20.0,29.15,North,353,0.0,0.0,34,0.00,,SKC,0.00,VWS V14.00,2013-04-03 03:45:00,
2013-04-02 23:50:00,46.9,20.0,29.15,NNE,32,0.0,0.0,34,0.00,,SKC,0.00,VWS V14.00,2013-04-03 03:50:00,
2013-04-02 23:55:00,46.8,19.2,29.15,NNE,17,0.0,3.1,33,0.00,,SKC,0.00,VWS V14.00,2013-04-03 03:55:00,